Weather History for Greenwood, SC

Change the Weather History Date:

Thursday, August 22, 2013

  Actual Average (KAND) Record (KAND)
Temperature  
Mean Temperature 78 °F -  
Max Temperature 88 °F 86 °F 101 °F (1983)
Min Temperature 69 °F 67 °F 59 °F (1997)
Cooling Degree Days 14    
Growing Degree Days 28 (Base 50)    
Moisture  
Dew Point 70 °F    
Average Humidity 85    
Maximum Humidity 97    
Minimum Humidity 57    
Precipitation  
Precipitation 0.46 in - - ()
Sea Level Pressure  
Sea Level Pressure 30.15 in    
Wind  
Wind Speed 1 mph (West)    
Max Wind Speed 15 mph    
Max Gust Speed 22 mph    
Visibility 6 miles    
Events Fog , Rain , Thunderstorm    
Averages and records for this station are not official NWS values.
T = Trace of Precipitation, MM = Missing Value Source: NWS Daily Summary

Daily Weather History Graph

Daily Weather History Graph

Search for Another Location

Airport:

Trip Planner

Search our weather history database for the weather conditions in past years. The results will help you decide how hot, cold, wet, or windy it might be!

Date:

Astronomy

Aug. 22, 2013 Rise Set
Actual Time 6:55 AM EDT 8:07 PM EDT
Civil Twilight 6:28 AM EDT 8:33 PM EDT
Nautical Twilight 5:57 AM EDT 9:04 PM EDT
Astronomical Twilight 5:25 AM EDT 9:36 PM EDT
Moon 8:59 PM EDT (8/22) 8:34 AM EDT (8/22)
Length of Visible Light 14h 04m
Length of Day
13h 12m
Waning Gibbous, 97% of the Moon is Illuminated
Aug 22
Waning Gibbous
Aug 28
Last Quarter
Sep 5
New
Sep 12
First Quarter
Sep 19
Full

Hourly Weather History & Observations

Time (EDT) Temp. Heat Index Dew Point Humidity Pressure Visibility Wind Dir Wind Speed Gust Speed Precip Events Conditions
12:20 AM 73.4 °F - 69.8 °F 88% 30.20 in 2.5 mi Calm Calm - N/A   Clear
12:28 AM 73.4 °F - 71.6 °F 94% 30.19 in 10.0 mi Calm Calm - N/A   Clear
12:56 AM 72.0 °F - 70.0 °F 93% 30.17 in 8.0 mi Calm Calm - N/A   Clear
1:56 AM 72.0 °F - 70.0 °F 93% 30.17 in 10.0 mi Calm Calm - N/A   Clear
2:42 AM 71.6 °F - 69.8 °F 94% 30.19 in 2.5 mi Calm Calm - N/A   Clear
2:53 AM 71.6 °F - 69.8 °F 94% 30.18 in 1.2 mi Calm Calm - N/A   Clear
2:56 AM 72.0 °F - 70.0 °F 93% 30.17 in 1.5 mi Calm Calm - N/A   Clear
3:06 AM 71.6 °F - 69.8 °F 94% 30.19 in 2.0 mi Calm Calm - N/A   Clear
3:24 AM 71.6 °F - 69.8 °F 94% 30.18 in 1.5 mi Calm Calm - N/A   Clear
3:33 AM 71.6 °F - 69.8 °F 94% 30.18 in 10.0 mi Calm Calm - N/A   Clear
3:56 AM 71.1 °F - 69.1 °F 93% 30.17 in 8.0 mi Calm Calm - N/A   Clear
4:04 AM 71.6 °F - 69.8 °F 94% 30.18 in 0.2 mi Calm Calm - N/A Fog Fog
4:10 AM 71.6 °F - 69.8 °F 94% 30.18 in 1.0 mi Calm Calm - N/A   Clear
4:20 AM 71.6 °F - 69.8 °F 94% 30.18 in 8.0 mi Calm Calm - N/A   Clear
4:56 AM 70.0 °F - 69.1 °F 97% 30.16 in 10.0 mi Calm Calm - N/A   Clear
5:29 AM 71.6 °F - 69.8 °F 94% 30.17 in 2.0 mi Calm Calm - N/A   Clear
5:38 AM 71.6 °F - 69.8 °F 94% 30.17 in 10.0 mi Calm Calm - N/A   Clear
5:56 AM 71.1 °F - 69.1 °F 93% 30.15 in 10.0 mi Calm Calm - N/A   Clear
6:10 AM 71.6 °F - 69.8 °F 94% 30.17 in 0.8 mi Calm Calm - N/A   Clear
6:19 AM 69.8 °F - 68.0 °F 94% 30.18 in 2.5 mi Calm Calm - N/A   Clear
6:26 AM 69.8 °F - 68.0 °F 94% 30.18 in 9.0 mi NNW 3.5 mph - N/A   Clear
6:33 AM 69.8 °F - 68.0 °F 94% 30.18 in 1.8 mi Calm Calm - N/A   Clear
6:44 AM 69.8 °F - 68.0 °F 94% 30.18 in 3.0 mi Calm Calm - N/A   Clear
6:56 AM 70.0 °F - 68.0 °F 93% 30.17 in 10.0 mi Calm Calm - N/A   Clear
7:05 AM 69.8 °F - 68.0 °F 94% 30.18 in 1.5 mi Calm Calm - N/A   Clear
7:13 AM 69.8 °F - 68.0 °F 94% 30.18 in 10.0 mi West 3.5 mph - N/A   Clear
7:56 AM 73.0 °F - 70.0 °F 90% 30.18 in 10.0 mi Calm Calm - N/A   Clear
8:56 AM 75.9 °F - 71.1 °F 85% 30.19 in 10.0 mi Calm Calm - N/A   Partly Cloudy
9:30 AM 78.8 °F - 71.6 °F 78% 30.20 in 2.0 mi SW 4.6 mph - N/A   Haze
9:40 AM 78.8 °F - 71.6 °F 78% 30.20 in 10.0 mi SW 5.8 mph - N/A   Partly Cloudy
9:56 AM 79.0 °F - 71.1 °F 77% 30.18 in 10.0 mi SSW 3.5 mph - N/A   Scattered Clouds
10:50 AM 82.4 °F 87.2 °F 71.6 °F 70% 30.19 in 1.8 mi South 3.5 mph - N/A   Haze
10:56 AM 82.0 °F 86.7 °F 72.0 °F 71% 30.17 in 1.8 mi South 4.6 mph - N/A   Haze
11:04 AM 82.4 °F 87.2 °F 71.6 °F 70% 30.19 in 10.0 mi Variable 3.5 mph - N/A   Clear
11:17 AM 82.4 °F 87.2 °F 71.6 °F 70% 30.19 in 1.5 mi SW 4.6 mph - N/A   Haze
11:25 AM 82.4 °F 87.2 °F 71.6 °F 70% 30.19 in 10.0 mi West 3.5 mph - N/A   Clear
11:29 AM 82.4 °F 87.2 °F 71.6 °F 70% 30.19 in 1.8 mi Calm Calm - N/A   Haze
11:40 AM 84.2 °F 89.6 °F 71.6 °F 66% 30.19 in 0.8 mi Calm Calm - N/A   Haze
11:45 AM 84.2 °F 89.6 °F 71.6 °F 66% 30.18 in 3.0 mi West 5.8 mph - N/A   Haze
11:56 AM 84.9 °F 90.7 °F 72.0 °F 65% 30.16 in 10.0 mi Calm Calm - N/A   Partly Cloudy
12:56 PM 86.0 °F 93.0 °F 73.0 °F 65% 30.15 in 10.0 mi WSW 4.6 mph - N/A   Partly Cloudy
1:56 PM 88.0 °F 93.8 °F 71.1 °F 57% 30.12 in 10.0 mi Calm Calm - N/A   Scattered Clouds
2:56 PM 88.0 °F 94.7 °F 72.0 °F 59% 30.08 in 10.0 mi West 4.6 mph - N/A   Partly Cloudy
3:56 PM 86.0 °F 92.2 °F 72.0 °F 63% 30.07 in 10.0 mi Variable 4.6 mph - N/A   Partly Cloudy
4:15 PM 80.6 °F 85.4 °F 73.4 °F 79% 30.09 in 1.8 mi WSW 4.6 mph 19.6 mph 0.06 in Rain , Thunderstorm Heavy Thunderstorms and Rain
4:22 PM 82.4 °F 88.2 °F 73.4 °F 74% 30.08 in 3.0 mi Calm Calm - 0.06 in Rain , Thunderstorm Light Thunderstorms and Rain
4:54 PM 75.2 °F - 71.6 °F 89% 30.10 in 1.8 mi NW 15.0 mph 20.7 mph 0.14 in Rain , Thunderstorm Heavy Thunderstorms and Rain
4:56 PM 75.0 °F - 70.0 °F 84% 30.09 in 1.8 mi NW 13.8 mph 21.9 mph 0.16 in Rain , Thunderstorm Heavy Thunderstorms and Rain
5:08 PM 73.4 °F - 68.0 °F 83% 30.10 in 0.5 mi NE 4.6 mph - 0.29 in Rain , Thunderstorm Heavy Thunderstorms and Rain
5:13 PM 73.4 °F - 68.0 °F 83% 30.10 in 2.0 mi NE 8.1 mph - 0.29 in Rain , Thunderstorm Light Thunderstorms and Rain
5:20 PM 73.4 °F - 68.0 °F 83% 30.10 in 10.0 mi NNE 8.1 mph - 0.30 in Rain , Thunderstorm Light Thunderstorms and Rain
5:48 PM 71.6 °F - 69.8 °F 94% 30.11 in 10.0 mi NNE 4.6 mph - 0.30 in   Partly Cloudy
5:56 PM 73.0 °F - 69.1 °F 87% 30.09 in 10.0 mi Calm Calm - 0.30 in   Partly Cloudy
6:56 PM 73.9 °F - 71.1 °F 91% 30.05 in 10.0 mi Calm Calm - N/A   Clear
7:56 PM 73.9 °F - 71.1 °F 91% 30.06 in 10.0 mi Calm Calm - N/A   Clear
8:56 PM 72.0 °F - 70.0 °F 93% 30.07 in 10.0 mi Calm Calm - N/A   Clear
9:56 PM 72.0 °F - 70.0 °F 93% 30.09 in 10.0 mi Calm Calm - N/A   Clear
10:56 PM 72.0 °F - 70.0 °F 93% 30.09 in 10.0 mi Calm Calm - N/A   Clear
11:56 PM 72.0 °F - 70.0 °F 93% 30.08 in 10.0 mi Calm Calm - N/A   Scattered Clouds